INTELSAT 37E (IS-37E) (42950 NORAD) Tracking and Keplerian Element Data

This shows tracking and keplerian element data for the satellite.

Feedback or suggestion? Click here.




ElementValue
Catalog42950
NameINTELSAT 37E (IS-37E)
Epoch Orbit2463
Epoch Day160.18174456
Epoch Year2024
RAAN46.9911
Inclination0.0144
Eccentricity0.0002225
Argument of Perigee37.6614
Mean Anonmoly219.8174
Mean Motion1.00273315
Decay Rate-1.41E-06
L11 42950U 17059A 24160.18174456 -.00000141 00000+0 00000+0 0 9996
L22 42950 0.0144 46.9911 0002225 37.6614 219.8174 1.00273315 24638



Live tracking and technical data element details for INTELSAT 37E (IS-37E) (NORAD 42950). INTELSAT 37E (IS-37E) can be tracked NOW for your location showing map with azimuth and elevation plus other details from your city location.







IsCatalogInMostPopularTable: catalog: 42950, numindb: 1392
Update: records affected: 1



GetName: 42950 INTELSAT 37E (IS-37E)

Hit Count: updated at: Tue, 17 Sep 2024 11:55:21 GMT